Weather History for KVVV - April, 2014

Change the Weather History Date:

Tuesday, April 22, 2014

  Actual Average (KAQP) Record (KAQP)
Temperature  
Mean Temperature 48 °F -  
Max Temperature 62 °F 57 °F 68 °F (1998)
Min Temperature 33 °F 33 °F 28 °F (2002)
Degree Days  
Heating Degree Days 18    
Moisture  
Dew Point 30 °F    
Average Humidity 51    
Maximum Humidity 87    
Minimum Humidity 27    
Precipitation  
Precipitation 0.00 in - - ()
Sea Level Pressure  
Sea Level Pressure 30.07 in    
Wind  
Wind Speed 5 mph (SE)    
Max Wind Speed 16 mph    
Max Gust Speed 21 mph    
Visibility 10 miles    
Events      
Averages and records for this station are not official NWS values.
T = Trace of Precipitation, MM = Missing Value Source: NWS Daily Summary

Daily Weather History Graph

Daily Weather History Graph

Search for Another Location

Airport or City:

Trip Planner

Search our weather history database for the weather conditions in past years. The results will help you decide how hot, cold, wet, or windy it might be!

Date:

Astronomy

Apr. 22, 2014 Rise Set
Actual Time 6:28 AM CDT 8:20 PM CDT
Civil Twilight 5:56 AM CDT 8:52 PM CDT
Nautical Twilight 5:18 AM CDT 9:31 PM CDT
Astronomical Twilight 4:36 AM CDT 10:13 PM CDT
Moon 2:38 AM CDT (4/22) 1:04 PM CDT (4/22)
Length of Visible Light 14h 55m
Length of Day
13h 52m
Last Quarter, 46% of the Moon is Illuminated
Apr 22
Last Quarter
Apr 29
New
May 6
First Quarter
May 14
Full
May 21
Last Quarter

Hourly Weather History & Observations

Time (CDT) Temp. Windchill Dew Point Humidity Pressure Visibility Wind Dir Wind Speed Gust Speed Precip Events Conditions
12:14 AM 39.2 °F 37.0 °F 30.2 °F 70% 30.14 in 10.0 mi WSW 3.5 mph - N/A   Clear
12:33 AM 41.0 °F 37.1 °F 30.2 °F 65% 30.14 in 10.0 mi West 5.8 mph - N/A   Clear
12:54 AM 39.2 °F 37.0 °F 30.2 °F 70% 30.14 in 10.0 mi WSW 3.5 mph - N/A   Clear
1:14 AM 39.2 °F - 28.4 °F 65% 30.14 in 10.0 mi Calm Calm - N/A   Clear
1:33 AM 39.2 °F - 28.4 °F 65% 30.14 in 10.0 mi Calm Calm - N/A   Clear
1:54 AM 39.2 °F 37.0 °F 28.4 °F 65% 30.14 in 10.0 mi West 3.5 mph - N/A   Clear
2:14 AM 37.4 °F 34.9 °F 28.4 °F 70% 30.14 in 10.0 mi WSW 3.5 mph - N/A   Clear
2:33 AM 37.4 °F 34.9 °F 28.4 °F 70% 30.14 in 10.0 mi West 3.5 mph - N/A   Clear
2:54 AM 37.4 °F 34.9 °F 28.4 °F 70% 30.14 in 10.0 mi West 3.5 mph - N/A   Clear
3:14 AM 35.6 °F - 28.4 °F 75% 30.13 in 10.0 mi Calm Calm - N/A   Clear
3:34 AM 33.8 °F - 28.4 °F 81% 30.13 in 10.0 mi Calm Calm - N/A   Clear
3:53 AM 33.8 °F - 28.4 °F 81% 30.13 in 10.0 mi Calm Calm - N/A   Clear
4:14 AM 33.8 °F 30.8 °F 28.4 °F 81% 30.14 in 10.0 mi West 3.5 mph - N/A   Clear
4:34 AM 33.8 °F 28.6 °F 30.2 °F 87% 30.14 in 10.0 mi WSW 5.8 mph - N/A   Clear
5:14 AM 35.6 °F 32.8 °F 28.4 °F 75% 30.14 in 10.0 mi West 3.5 mph - N/A   Clear
5:34 AM 35.6 °F 32.8 °F 26.6 °F 70% 30.14 in 10.0 mi West 3.5 mph - N/A   Clear
5:53 AM 33.8 °F 29.6 °F 26.6 °F 75% 30.14 in 10.0 mi West 4.6 mph - N/A   Clear
6:14 AM 35.6 °F 29.9 °F 26.6 °F 70% 30.13 in 10.0 mi WSW 6.9 mph - N/A   Clear
6:34 AM 33.8 °F 29.6 °F 26.6 °F 75% 30.14 in 10.0 mi West 4.6 mph - N/A   Clear
6:53 AM 33.8 °F - 26.6 °F 75% 30.14 in 10.0 mi Calm Calm - N/A   Clear
7:14 AM 33.8 °F - 26.6 °F 75% 30.15 in 10.0 mi Calm Calm - N/A   Clear
7:34 AM 35.6 °F - 28.4 °F 75% 30.15 in 10.0 mi Calm Calm - N/A   Clear
7:53 AM 35.6 °F - 30.2 °F 81% 30.15 in 10.0 mi Calm Calm - N/A   Clear
8:14 AM 39.2 °F - 30.2 °F 70% 30.15 in 10.0 mi Calm Calm - N/A   Clear
8:33 AM 41.0 °F - 32.0 °F 70% 30.14 in 10.0 mi Calm Calm - N/A   Clear
8:54 AM 42.8 °F - 33.8 °F 70% 30.14 in 10.0 mi Calm Calm - N/A   Clear
9:13 AM 46.4 °F - 33.8 °F 62% 30.15 in 10.0 mi Calm Calm - N/A   Clear
9:34 AM 48.2 °F - 33.8 °F 58% 30.14 in 10.0 mi Calm Calm - N/A   Clear
9:54 AM 51.8 °F - 33.8 °F 50% 30.14 in 10.0 mi Calm Calm - N/A   Clear
10:13 AM 53.6 °F - 33.8 °F 47% 30.14 in 10.0 mi Calm Calm - N/A   Clear
10:34 AM 53.6 °F - 32.0 °F 44% 30.13 in 10.0 mi SSE 3.5 mph - N/A   Clear
10:54 AM 55.4 °F - 30.2 °F 38% 30.13 in 10.0 mi Calm Calm - N/A   Clear
11:13 AM 55.4 °F - 30.2 °F 38% 30.13 in 10.0 mi SSE 4.6 mph - N/A   Clear
11:34 AM 57.2 °F - 30.2 °F 36% 30.12 in 10.0 mi SW 3.5 mph - N/A   Clear
11:54 AM 59.0 °F - 30.2 °F 34% 30.11 in 10.0 mi NNW 3.5 mph - N/A   Clear
12:13 PM 59.0 °F - 28.4 °F 31% 30.11 in 10.0 mi Calm Calm - N/A   Clear
12:34 PM 59.0 °F - 28.4 °F 31% 30.10 in 10.0 mi ESE 5.8 mph - N/A   Clear
12:54 PM 59.0 °F - 28.4 °F 31% 30.09 in 10.0 mi ESE 4.6 mph - N/A   Clear
1:14 PM 59.0 °F - 28.4 °F 31% 30.08 in 10.0 mi East 4.6 mph - N/A   Clear
1:34 PM 60.8 °F - 30.2 °F 31% 30.07 in 10.0 mi SSE 4.6 mph - N/A   Clear
1:53 PM 60.8 °F - 30.2 °F 31% 30.06 in 10.0 mi South 3.5 mph - N/A   Clear
2:14 PM 60.8 °F - 30.2 °F 31% 30.06 in 10.0 mi SSE 4.6 mph - N/A   Clear
2:34 PM 60.8 °F - 28.4 °F 29% 30.05 in 10.0 mi Calm Calm - N/A   Clear
2:53 PM 62.6 °F - 30.2 °F 30% 30.04 in 10.0 mi SE 5.8 mph - N/A   Clear
3:14 PM 60.8 °F - 28.4 °F 29% 30.04 in 10.0 mi SE 9.2 mph - N/A   Clear
3:34 PM 60.8 °F - 28.4 °F 29% 30.03 in 10.0 mi ESE 8.1 mph - N/A   Clear
3:53 PM 60.8 °F - 26.6 °F 27% 30.02 in 10.0 mi East 9.2 mph 16.1 mph N/A   Clear
4:14 PM 62.6 °F - 28.4 °F 27% 30.01 in 10.0 mi ESE 9.2 mph - N/A   Clear
4:34 PM 62.6 °F - 28.4 °F 27% 30.00 in 10.0 mi SE 10.4 mph - N/A   Clear
4:45 PM 62.6 °F - 30.2 °F 30% 30.00 in 10.0 mi SE 9.2 mph - N/A   Clear
5:11 PM 62.6 °F - 28.4 °F 27% 29.99 in 10.0 mi ESE 13.8 mph 17.3 mph N/A   Clear
5:34 PM 62.6 °F - 30.2 °F 30% 29.99 in 10.0 mi ESE 13.8 mph - N/A   Clear
5:53 PM 62.6 °F - 30.2 °F 30% 29.99 in 10.0 mi ESE 13.8 mph - N/A   Clear
6:13 PM 62.6 °F - 30.2 °F 30% 29.99 in 10.0 mi ESE 12.7 mph - N/A   Clear
6:28 PM 60.8 °F - 30.2 °F 31% 29.98 in 10.0 mi ESE 13.8 mph 17.3 mph N/A   Clear
6:54 PM 60.8 °F - 30.2 °F 31% 29.97 in 10.0 mi ESE 12.7 mph - N/A   Clear
7:14 PM 59.0 °F - 30.2 °F 34% 29.97 in 10.0 mi ESE 13.8 mph - N/A   Clear
7:31 PM 59.0 °F - 30.2 °F 34% 29.97 in 10.0 mi ESE 13.8 mph - N/A   Clear
7:54 PM 57.2 °F - 30.2 °F 36% 29.96 in 10.0 mi ESE 10.4 mph - N/A   Clear
8:14 PM 55.4 °F - 32.0 °F 41% 29.96 in 10.0 mi East 9.2 mph - N/A   Scattered Clouds
8:33 PM 55.4 °F - 33.8 °F 44% 29.96 in 10.0 mi ESE 12.7 mph - N/A   Mostly Cloudy
8:54 PM 55.4 °F - 33.8 °F 44% 29.97 in 10.0 mi ESE 12.7 mph - N/A   Mostly Cloudy
9:14 PM 53.6 °F - 33.8 °F 47% 29.98 in 10.0 mi ESE 13.8 mph - N/A   Mostly Cloudy
9:34 PM 53.6 °F - 35.6 °F 51% 29.98 in 10.0 mi ESE 12.7 mph - N/A   Mostly Cloudy
9:54 PM 53.6 °F - 35.6 °F 51% 29.99 in 10.0 mi ESE 11.5 mph - N/A   Mostly Cloudy
10:14 PM 51.8 °F - 35.6 °F 54% 29.99 in 10.0 mi ESE 10.4 mph - N/A   Scattered Clouds
10:34 PM 51.8 °F - 35.6 °F 54% 29.99 in 10.0 mi SE 11.5 mph - N/A   Clear
10:54 PM 51.8 °F - 35.6 °F 54% 29.98 in 10.0 mi SE 13.8 mph 20.7 mph N/A   Scattered Clouds
11:13 PM 51.8 °F - 35.6 °F 54% 29.97 in 10.0 mi ESE 12.7 mph - N/A   Scattered Clouds
11:34 PM 51.8 °F - 33.8 °F 50% 29.97 in 10.0 mi SE 13.8 mph - N/A   Clear
11:54 PM 51.8 °F - 33.8 °F 50% 29.97 in 10.0 mi SE 16.1 mph - N/A   Clear